Content
SEND FEEDBACK

Daily
Averages
Monthly
Summary
United States of America

ASHEVILLE, NORTH CAROLINA


Home > North America > United States > North Carolina
Elevation: 2240 feet     Latitude: 35 36N     Longitude: 082 32W

WEATHER
 
SELECT A DAY
Number of Records: 225,295;   Date Range: 1/1/95 - 7/7/14
 
SHARE

PRINT THIS DATA

[ ← Previous Day ]
WEATHER ALMANAC - JANUARY 10, 2013
[ Next Day → ]
[ °C ]   °F
Weather ElementAverageHighLow
Temperature46.9 °F62.1 °F (2:54 pm)41 °F (4:01 am)
Dewpoint44 °F51.1 °F (11:54 am)39.2 °F (6:36 am)
Humidity90.7 %100 % (3:19 am)62 % (2:54 pm)
Barometer30.45 in30.51 in (10:12 am)30.32 in (11:54 pm)
Wind Speed1.9 mph10.4 mph (11:54 pm)
Weather ElementAverage
Visibility4.7 mi
Wind DirectionNE (44.4 °)

Weather ElementTotal
Precipitation---
Heating Degree Days13.5 (Base 65)
Growing Degree Days1.6 (Base 50)
Averaged from 55 records on January 10, 2013
WEATHER CONDITIONS BREAKOUT
WIND DIRECTION BREAKOUT
WEATHER BY HOUR - JANUARY 10, 2013
[ °C ]   °F
Local TimeTemperatureDewpointHumidityBarometerVisibilityWind DirectionWind SpeedGust SpeedPrecipitationEventsConditions
1:54 AM44.1 °F43.0 °F96 %30.47 in6.0 miCalmClear
2:54 AM43.0 °F42.1 °F97 %30.47 in3.0 miCalmClear
3:19 AM42.8 °F42.8 °F100 %30.47 in1.8 miCalmClear
3:22 AM42.8 °F42.8 °F100 %30.47 in1.2 miCalmPartly Cloudy
3:31 AM42.8 °F41.0 °F93 %30.47 in2.0 miCalmPartly Cloudy
3:38 AM42.8 °F42.8 °F100 %30.47 in5.0 miCalmPartly Cloudy
3:54 AM42.1 °F42.1 °F100 %30.46 in5.0 miCalmClear
4:01 AM41.0 °F41.0 °F100 %30.46 in2.5 miCalmPartly Cloudy
4:08 AM42.8 °F41.0 °F93 %30.46 in1.5 miCalmMostly Cloudy
4:12 AM42.8 °F42.8 °F100 %30.47 in0.8 miCalmMist
4:23 AM42.8 °F41.0 °F93 %30.46 in1.5 miCalmOvercast
4:26 AM42.8 °F41.0 °F93 %30.46 in3.0 miCalmOvercast
4:47 AM42.8 °F42.8 °F100 %30.46 in6.0 miCalmScattered Clouds
4:54 AM43.0 °F42.1 °F97 %30.46 in6.0 miCalmPartly Cloudy
5:29 AM41.0 °F41.0 °F100 %30.45 in2.5 miCalmClear
5:35 AM42.8 °F41.0 °F93 %30.45 in1.2 miCalmClear
5:41 AM41.0 °F41.0 °F100 %30.45 in2.0 miCalmClear
5:49 AM41.0 °F41.0 °F100 %30.45 in4.0 miCalmClear
5:54 AM41.0 °F41.0 °F100 %30.45 in4.0 miCalmClear
6:23 AM41.0 °F41.0 °F100 %30.46 in5.0 miCalmPartly Cloudy
6:36 AM41.0 °F39.2 °F93 %30.47 in2.0 miCalmMostly Cloudy
6:38 AM41.0 °F39.2 °F93 %30.47 in1.2 miCalmMostly Cloudy
6:49 AM42.8 °F41.0 °F93 %30.47 in0.8 miCalmMist
6:54 AM41.0 °F41.0 °F100 %30.47 in0.8 miCalmOvercast
7:01 AM41.0 °F41.0 °F100 %30.47 in1.0 miCalmOvercast
7:10 AM41.0 °F41.0 °F100 %30.47 in0.5 miCalmFogFog
7:31 AM41.0 °F41.0 °F100 %30.47 in1.5 miCalmOvercast
7:44 AM41.0 °F41.0 °F100 %30.48 in0.8 miCalmOvercast
7:54 AM41.0 °F41.0 °F100 %30.48 in0.8 miCalmOvercast
8:05 AM42.8 °F42.8 °F100 %30.48 in0.2 miCalmFogFog
8:16 AM42.8 °F42.8 °F100 %30.49 in0.2 miCalmFogFog
8:26 AM42.8 °F42.8 °F100 %30.49 in0.2 miCalmFogFog
8:54 AM43.0 °F43.0 °F100 %30.50 in0.2 miCalmFogFog
9:30 AM44.6 °F44.6 °F100 %30.50 in0.5 miCalmFogFog
9:51 AM44.6 °F44.6 °F100 %30.50 in1.5 miCalmOvercast
9:54 AM45.0 °F45.0 °F100 %30.50 in2.5 miCalmOvercast
10:12 AM46.4 °F44.6 °F93 %30.51 in5.0 miCalmMostly Cloudy
10:22 AM48.2 °F46.4 °F93 %30.51 in8.0 miCalmScattered Clouds
10:54 AM52.0 °F48.0 °F86 %30.49 in10.0 miSouth (170°)4.6 mphClear
11:54 AM57.0 °F51.1 °F81 %30.47 in10.0 miSSE (160°)6.9 mphOvercast
12:54 PM57.9 °F51.1 °F78 %30.43 in10.0 miSSE (160°)8.1 mphMostly Cloudy
1:54 PM61.0 °F51.1 °F70 %30.40 in10.0 miSE (140°)6.9 mphOvercast
2:54 PM62.1 °F48.9 °F62 %30.39 in10.0 miSE (140°)6.9 mphScattered Clouds
3:54 PM62.1 °F48.9 °F62 %30.39 in10.0 miSE (140°)8.1 mphClear
4:54 PM61.0 °F48.9 °F64 %30.40 in10.0 miSE (140°)5.8 mphClear
5:54 PM59.0 °F48.9 °F69 %30.41 in10.0 miSE (130°)4.6 mphOvercast
6:54 PM55.9 °F48.9 °F77 %30.41 in10.0 miSouth (170°)4.6 mphOvercast
7:54 PM55.0 °F48.9 °F80 %30.40 in10.0 miSouth (180°)4.6 mphOvercast
8:37 PM53.6 °F48.2 °F82 %30.40 in10.0 miCalmOvercast
8:54 PM54.0 °F48.0 °F80 %30.39 in10.0 miSSE (160°)3.5 mphOvercast
9:08 PM53.6 °F48.2 °F82 %30.39 in10.0 miSSE (160°)5.8 mphOvercast
9:54 PM57.0 °F45.0 °F64 %30.37 in10.0 miESE (120°)4.6 mphOvercast
10:05 PM57.2 °F44.6 °F63 %30.38 in10.0 miSSE (150°)9.2 mphOvercast
10:54 PM53.1 °F46.0 °F77 %30.34 in10.0 miSSE (150°)9.2 mphOvercast
11:54 PM50.0 °F48.0 °F93 %30.32 in5.0 miSouth (170°)10.4 mph0.00 inRainLight Rain
Hourly data recorded from KAVL, located miles away from Asheville, North Carolina







STORIES FROM OUR PARTNERS